KU4ME Weather Reports


time (UTC)temp
F
wind
direction
speed
knots
gust
knots
rain 1hr
in
rain 24hr
in
rain mn
in
humidity
%
barometer
mb
20260503215006 65 93 0.0 1.7 0.00 0.00 0.00 34 1016.5
20260503214006 65 93 0.0 4.3 0.00 0.00 0.00 36 1016.5
20260503213005 66 75 0.0 0.0 0.00 0.00 0.00 35 1016.7
20260503212006 66 75 0.0 0.0 0.00 0.00 0.00 35 1016.8
20260503211006 67 75 0.0 0.0 0.00 0.00 0.00 35 1017.0
20260503210006 67 75 0.0 2.6 0.00 0.00 0.00 37 1017.0
20260503205006 67 93 1.7 6.1 0.00 0.00 0.00 32 1017.1
20260503201005 68 266 0.0 5.2 0.00 0.00 0.00 33 1017.8
20260503195005 67 95 0.9 2.6 0.00 0.00 0.00 32 1018.2
20260503194006 67 123 0.0 6.1 0.00 0.00 0.00 32 1018.2
20260503192006 68 182 0.0 0.0 0.00 0.00 0.00 33 1018.5
20260503191006 68 182 0.0 4.3 0.00 0.00 0.00 32 1018.6
20260503184006 67 242 0.9 4.3 0.00 0.00 0.00 31 1019.0
20260503183006 67 62 2.6 6.1 0.00 0.00 0.00 30 1019.0
20260503182006 67 16 0.0 5.2 0.00 0.00 0.00 31 1019.1
20260503180005 66 240 0.0 4.3 0.00 0.00 0.00 31 1019.4
20260503175006 66 270 0.9 4.3 0.00 0.00 0.00 33 1019.6
20260503174005 66 128 0.0 0.0 0.00 0.00 0.00 35 1019.8
20260503173005 65 128 0.0 4.3 0.00 0.00 0.00 36 1019.9
20260503171005 64 248 0.0 0.0 0.00 0.00 0.00 38 1020.1
20260503151005 56 133 0.0 0.0 0.00 0.00 0.00 50 1021.3
20260503131005 44 234 0.0 0.0 0.00 0.00 0.00 94 1021.3
20260503081004 44 234 0.0 0.0 0.00 0.00 0.00 91 1018.6
20260503072004 45 234 0.0 0.0 0.00 0.00 0.00 89 1018.1
20260503055003 48 234 0.0 0.0 0.00 0.00 0.00 77 1017.7
20260503054004 48 234 0.0 0.0 0.00 0.00 0.00 76 1017.8
20260503053003 49 234 0.0 0.0 0.00 0.00 0.00 76 1017.8
20260503052003 49 234 0.0 0.0 0.00 0.00 0.00 77 1017.8
20260503051004 49 234 0.0 0.0 0.00 0.00 0.00 79 1017.8
20260503050004 49 234 0.0 0.0 0.00 0.00 0.00 79 1017.7
20260503045003 49 234 0.0 0.0 0.00 0.00 0.00 78 1017.7
20260503044007 49 234 0.0 0.0 0.00 0.00 0.00 77 1017.5
20260503043007 49 234 0.0 0.0 0.00 0.00 0.00 77 1017.4
20260503042006 49 234 0.0 0.0 0.00 0.00 0.00 76 1017.4
20260503041008 49 234 0.0 0.0 0.00 0.00 0.00 76 1017.3
20260503040007 50 234 0.0 0.0 0.00 0.00 0.00 77 1017.4
20260503034007 50 234 0.0 0.0 0.00 0.00 0.00 76 1017.4
20260503032007 50 234 0.0 0.0 0.00 0.00 0.00 73 1017.3
20260503025007 50 234 0.0 0.0 0.00 0.00 0.00 75 1017.2
20260503024007 50 234 0.0 0.0 0.00 0.00 0.00 75 1017.2
20260503023007 50 234 0.0 0.0 0.00 0.00 0.00 74 1017.0
20260503021006 50 234 0.0 0.0 0.00 0.00 0.00 72 1016.9
20260503014006 51 234 0.0 0.0 0.00 0.00 0.00 68 1016.3
20260503013006 51 234 0.0 0.0 0.00 0.00 0.00 67 1016.3
20260503012007 52 234 0.0 0.0 0.00 0.00 0.00 67 1016.2
20260503011007 52 234 0.0 0.0 0.00 0.00 0.00 66 1016.1
20260503010007 52 234 0.0 0.0 0.00 0.00 0.00 66 1015.9
20260503005007 52 234 0.0 0.0 0.00 0.00 0.00 61 1015.9
20260503004007 53 234 0.0 0.0 0.00 0.00 0.00 60 1015.8
20260503003007 54 234 0.0 0.0 0.00 0.00 0.00 59 1015.6
20260503002006 54 234 0.0 0.0 0.00 0.00 0.00 58 1015.5
20260503001006 55 234 0.0 0.0 0.00 0.00 0.00 58 1015.3
20260503000006 55 234 0.0 0.0 0.00 0.00 0.00 55 1015.1
20260502235007 56 234 0.0 0.0 0.00 0.00 0.00 51 1015.1
20260502234006 56 234 0.0 0.0 0.00 0.00 0.00 49 1015.0
20260502233006 57 234 0.0 0.0 0.00 0.00 0.00 50 1014.9
20260502232006 58 234 0.0 0.0 0.00 0.00 0.00 48 1014.8
20260502231006 58 234 0.0 0.0 0.00 0.00 0.00 47 1014.9
20260502225007 60 282 1.7 5.2 0.00 0.00 0.00 46 1014.9
20260502224007 60 167 0.0 0.0 0.00 0.00 0.00 45 1014.9
20260502223006 60 167 0.0 0.0 0.00 0.00 0.00 44 1014.8
20260502222006 61 167 0.0 5.2 0.00 0.00 0.00 43 1014.7
20260502221006 61 253 0.0 2.6 0.00 0.00 0.00 44 1014.5
20260502220006 62 253 0.0 0.0 0.00 0.00 0.00 41 1014.3